Abrixas rocket - Orbit

View from above orbital plane
View from above orbital plane
View from above satellite
View from above satellite

Ground track
Ground track

The orbit data is extracted from the following two-line orbital elements,

1 25723U 99022C   13137.85432499  .00005859  00000-0  24915-3 0  3906
2 25723 048.4289 023.9279 0020613 189.4445 213.5906 15.24111279776745
Epoch (UTC): 17 May 2013 20:30:13
Eccentricity: 0.0020613
inclination: 48.4289°
perigee height: 479 km
apogee height: 507 km
right ascension of ascending node: 23.9279°
argument of perigee: 189.4445°
revolutions per day: 15.24111279
mean anomaly at epoch: 213.5906°
orbit number at epoch: 77674

The dashed part of the orbit path shows where the satellite is in the earth's shadow,  

Developed and maintained by Chris Peat, Heavens-Above GmbH. Please read the updated FAQ before sending e-mail. Imprint. DLR